Vorticity
9 9 9 8 8 8 8 8 9 10 10 10 11 11 11 11 12 12 12 11 10 10 11 14 16 16 16 18 18 18 18 17 17 19 21 23 24 24 22 19 17 17 16 14 13 11 10 9 9 8 4 -1 15 23 22 12 6 4 5 9 17 21 22 19 20 22 23 24 23
9 9 9 8 8 8 8 8 9 9 10 10 10 10 10 10 10 10 9 8 6 4 6 13 12 11 10 11 12 12 13 14 15 16 18 20 20 20 19 18 17 16 15 15 16 15 14 12 11 9 4 -5 -1 7 11 4 2 5 9 15 19 17 13 11 16 20 24 25 23
9 9 9 9 8 8 8 7 7 7 7 7 7 8 8 8 8 8 7 7 5 3 3 4 8 9 9 7 6 7 9 11 13 14 15 16 17 16 16 16 15 14 14 14 15 16 16 16 15 14 10 3 -4 -3 -1 -2 1 9 18 26 18 11 6 7 15 19 21 23 24
9 9 8 8 8 7 6 5 5 5 5 5 5 6 6 6 7 7 7 6 5 4 3 2 3 6 9 8 4 4 6 8 9 10 11 12 13 13 14 14 14 13 13 13 14 15 16 17 17 17 16 14 8 5 3 1 8 22 34 34 18 10 8 15 21 24 26 27 27
9 8 8 7 6 6 5 5 5 4 4 5 5 6 6 6 6 6 6 6 5 5 4 3 1 -2 -4 -4 1 4 4 3 4 5 6 7 8 10 12 13 13 13 12 11 12 13 13 14 14 15 16 17 15 13 10 8 9 15 20 19 14 11 11 14 17 20 21 22 27
8 7 7 7 6 5 5 5 5 5 4 5 6 6 6 5 5 5 6 6 6 6 4 2 -0 -1 -1 0 2 3 4 3 3 3 4 4 5 7 9 12 13 14 14 12 11 11 10 10 10 11 12 13 13 14 14 13 7 -3 -9 -2 5 7 4 -1 3 9 14 16 19
8 8 7 7 6 5 5 5 5 5 5 6 6 5 5 5 5 6 6 6 5 4 3 3 4 4 4 3 4 5 5 5 5 5 5 4 4 5 6 8 11 14 17 18 17 15 13 12 11 11 10 10 10 11 12 13 10 5 0 -3 -1 1 1 -2 -3 -1 2 5 9
9 9 9 8 7 7 6 6 6 6 6 7 7 6 5 5 5 6 6 6 6 6 6 7 7 7 6 6 7 7 6 5 5 5 5 5 5 5 5 5 5 6 9 13 17 19 19 17 14 12 11 11 11 11 12 12 12 12 11 9 6 5 5 7 6 7 7 6 6
11 11 10 10 10 9 9 9 9 9 8 8 7 6 5 5 5 5 5 6 6 6 6 7 7 8 8 8 9 8 8 7 6 6 6 7 7 8 9 10 9 7 4 1 4 8 13 17 17 16 15 13 12 12 12 11 11 12 12 12 12 11 12 12 14 15 14 11 10
11 11 11 11 11 11 11 11 11 11 10 9 8 7 7 6 6 6 5 4 4 5 5 6 6 6 7 8 9 11 12 13 13 13 12 11 10 10 10 10 10 9 8 3 -2 -3 -1 5 10 14 15 15 14 12 11 10 11 11 11 11 12 13 13 10 9 11 15 17 19
12 12 12 12 12 12 11 11 11 11 11 10 9 9 8 8 7 7 6 5 5 5 5 5 5 6 7 8 9 11 13 14 17 18 18 17 14 11 10 9 10 11 11 11 4 -2 -6 -5 -0 5 10 15 15 14 12 11 11 12 12 12 14 15 14 10 4 0 -0 2 6
13 12 12 12 11 11 11 11 11 11 11 11 10 10 9 9 9 9 8 8 7 6 6 6 6 6 6 7 8 9 10 11 12 13 14 14 12 10 8 7 9 10 13 15 12 5 -2 -6 -5 -2 2 9 14 16 16 13 12 12 13 16 19 19 17 14 9 4 -2 -8 -12
12 12 11 11 11 11 11 11 11 11 11 11 11 10 10 10 10 10 10 10 9 8 8 8 7 7 6 6 7 7 7 7 6 4 3 3 3 1 -3 -6 -6 -2 4 12 15 13 6 -1 -4 -4 -3 2 9 14 17 16 14 14 15 18 19 17 14 11 9 7 4 2 -2
11 11 11 11 11 10 10 10 10 10 10 10 10 10 10 10 11 11 11 10 10 9 8 7 8 7 7 6 6 6 6 5 3 2 1 1 2 -1 -6 -14 -17 -15 -9 1 10 14 12 5 -0 -3 -3 -2 3 10 17 20 19 18 17 15 12 9 8 8 8 9 10 12 13
11 11 12 12 12 12 12 11 11 11 11 11 11 11 11 11 11 11 11 10 9 8 7 7 7 7 6 6 5 5 4 4 5 5 6 7 5 4 3 4 3 1 -2 -3 1 5 8 6 1 -1 -2 -3 0 8 16 22 23 21 17 12 8 7 8 11 14 17 20 22 24
11 11 12 13 13 13 14 14 14 13 14 14 14 15 15 14 13 13 12 11 10 9 9 8 7 6 5 4 3 2 2 2 2 3 4 5 7 9 11 13 13 14 14 11 5 2 2 2 -0 -1 -1 -2 -0 5 12 18 22 19 14 9 7 6 7 8 10 13 16 19 19
10 11 11 12 12 13 14 14 15 15 15 16 17 18 18 18 18 18 17 17 16 15 15 13 12 10 8 7 5 4 2 1 0 0 1 2 5 7 8 8 9 14 22 31 27 18 8 2 0 0 1 0 -0 3 9 15 16 12 7 4 5 6 7 6 5 6 8 9 6
9 9 10 10 10 11 11 12 13 13 14 15 16 17 19 20 20 21 21 22 22 22 22 21 21 20 18 16 15 13 10 8 6 4 3 2 3 4 4 5 7 12 20 34 42 39 28 13 6 3 3 2 1 5 10 14 11 6 3 3 7 10 11 7 3 2 1 1 -1
8 9 9 9 9 9 9 9 10 11 12 13 14 15 16 17 18 18 19 20 21 22 23 23 24 25 25 24 23 22 21 19 16 14 12 10 9 8 8 9 11 14 18 24 36 45 45 32 16 8 4 4 4 7 11 15 13 11 10 12 15 17 14 7 0 -3 -2 -0 3
9 9 8 8 8 8 8 8 9 10 10 11 12 13 13 14 14 15 15 16 17 18 19 20 21 22 23 24 24 25 24 24 23 22 21 19 18 18 18 18 19 18 18 21 33 46 53 46 26 12 5 4 5 9 12 16 16 16 17 19 20 18 13 6 2 1 4 9 11
9 9 8 8 8 8 8 9 9 10 10 11 11 12 12 13 13 13 14 14 15 15 16 17 17 18 19 19 20 21 21 22 22 21 21 21 20 20 20 20 18 17 17 21 33 46 52 46 29 15 8 5 7 9 11 11 10 10 9 9 7 5 4 4 7 11 15 18 18
9 9 8 8 9 9 9 10 10 11 11 11 12 12 12 12 12 13 13 14 14 15 15 15 15 15 16 16 16 16 16 16 16 16 16 15 15 15 15 15 15 14 15 19 28 35 38 34 23 15 10 9 11 12 11 9 8 6 4 1 -1 1 4 10 15 19 21 22 20
8 8 9 9 9 9 10 10 11 11 12 12 12 12 12 12 12 13 13 14 15 15 15 15 15 15 14 14 14 13 13 12 12 11 11 11 11 11 12 12 13 13 13 14 16 18 18 17 13 11 11 12 12 12 11 11 10 8 6 4 4 7 10 13 16 19 20 19 17
9 9 10 10 10 11 11 12 12 13 13 13 13 12 12 12 12 13 14 15 15 16 16 16 16 16 15 15 14 14 13 12 12 11 11 11 11 11 11 12 12 11 10 8 7 7 8 9 10 11 11 11 11 11 11 12 12 11 10 9 9 7 5 3 5 7 10 11 12
13 13 14 14 13 13 13 14 14 14 14 13 13 12 12 12 12 13 14 15 16 17 18 18 18 18 18 18 18 17 17 16 16 15 14 14 14 14 14 14 13 12 11 9 8 8 9 10 11 10 9 8 9 9 10 11 12 13 13 13 10 6 1 -3 -1 2 6 9 12
19 19 19 19 18 17 16 15 15 15 14 13 12 11 11 11 12 13 14 16 17 18 18 19 19 20 20 21 21 21 21 21 21 21 20 19 18 17 17 16 16 15 13 12 11 11 11 11 11 10 8 6 7 7 8 9 11 13 15 14 11 7 4 3 5 8 11 13 14
24 24 24 22 21 19 18 17 16 15 14 13 11 10 10 11 12 13 15 16 17 17 18 18 19 19 20 21 21 22 23 24 24 24 24 23 21 20 18 17 17 17 16 15 13 11 10 10 9 9 8 7 7 7 9 10 12 14 14 13 10 9 10 12 13 13 13 13 14
27 27 26 25 22 20 19 17 16 14 13 11 10 10 10 12 13 14 15 15 16 16 17 17 17 18 18 19 19 20 21 22 22 22 22 22 21 19 17 16 17 17 18 17 15 13 10 9 8 8 7 7 8 9 10 12 13 12 11 10 11 13 15 16 14 12 12 12 13
30 29 28 25 22 20 18 16 14 13 11 10 10 10 11 13 14 15 15 15 15 16 16 16 16 16 16 17 17 17 17 17 17 17 17 17 17 17 16 14 14 16 17 18 17 16 14 12 11 10 10 10 10 11 11 11 10 9 9 10 12 13 13 11 11 11 12 15 17
31 30 27 24 21 19 17 15 13 12 11 10 10 12 13 15 15 15 15 15 15 14 14 14 14 14 14 14 14 13 13 13 13 12 12 13 14 14 14 13 12 13 15 17 18 18 19 18 17 16 15 14 13 12 10 8 6 5 5 7 8 9 9 10 11 14 18 22 25
30 28 25 23 20 17 15 14 12 11 10 10 11 13 14 15 14 14 13 13 12 12 12 12 12 12 12 12 12 11 11 12 11 11 11 11 12 13 13 13 12 12 14 16 17 18 19 19 19 18 17 16 14 13 11 9 7 6 6 7 9 11 14 17 21 25 28 31 33
26 25 23 20 18 16 14 13 11 10 10 11 12 12 13 13 12 11 10 10 10 10 10 10 10 10 10 11 11 11 11 11 11 11 11 12 12 12 12 12 12 12 13 14 15 15 15 15 15 15 15 15 15 14 13 11 10 11 12 15 18 21 25 29 32 33 33 31 27
22 21 20 19 17 15 13 11 10 10 10 10 11 11 10 10 9 9 9 8 8 8 7 7 8 8 9 10 10 11 12 13 13 13 13 13 13 13 12 11 11 10 10 11 11 10 10 10 10 11 12 12 13 13 14 15 18 22 26 30 33 35 36 35 32 28 22 17 12
20 19 18 17 16 14 12 11 10 9 9 8 8 8 8 8 7 7 6 6 6 6 6 6 7 8 9 9 9 10 11 12 12 13 13 13 12 12 11 10 9 8 8 8 8 8 8 9 10 11 13 16 19 22 26 31 35 39 40 40 38 35 30 24 18 12 8 5 3
21 19 18 16 15 13 12 10 9 8 7 6 6 6 6 6 5 5 5 5 6 6 7 8 9 9 9 9 7 7 7 8 8 9 9 9 8 8 8 8 8 8 9 10 12 14 17 19 23 26 30 33 37 40 43 44 42 39 34 27 22 17 12 8 5 3 2 2 1
24 22 20 18 16 14 12 10 9 8 7 7 7 7 7 6 6 7 8 9 9 10 11 13 13 12 10 9 8 7 6 6 7 8 8 9 10 12 15 18 19 21 24 27 30 33 36 39 41 42 43 42 40 37 33 28 22 17 13 9 6 5 3 2 2 2 2 1 1
27 27 25 23 21 18 17 15 14 13 13 12 12 12 12 12 13 14 15 16 17 17 18 18 16 14 13 14 15 15 16 16 17 18 21 24 27 30 34 37 40 42 43 44 44 43 42 40 37 33 28 24 19 15 12 9 7 6 4 3 3 2 2 2 2 2 2 3 3
30 30 31 30 28 27 25 24 23 22 21 20 20 20 21 21 22 23 24 24 24 23 22 21 21 22 23 25 28 29 31 33 34 35 36 39 41 42 42 43 43 41 39 35 31 27 23 19 16 13 10 8 7 5 5 4 4 3 2 1 1 1 2 2 3 4 5 5 5
28 31 32 33 33 32 32 31 30 28 27 27 27 26 26 26 26 26 26 26 26 26 26 27 29 32 34 36 37 38 39 40 39 38 36 35 34 32 30 26 22 19 16 14 11 9 8 7 6 5 4 3 3 2 2 2 1 1 1 2 2 3 4 5 5 6 6 5 5
22 24 26 28 28 28 28 28 27 26 26 25 24 23 23 23 23 24 24 25 26 27 29 31 32 33 33 33 32 31 29 28 26 24 22 19 16 14 12 10 8 6 6 5 5 4 4 3 3 2 2 2 2 2 2 3 3 4 4 5 5 5 5 5 5 5 5 5 5
14 15 16 17 17 18 18 18 17 17 17 17 16 16 17 18 19 20 21 21 22 23 23 22 21 20 19 18 16 15 13 11 11 10 9 8 6 5 5 4 4 4 3 3 3 3 3 3 3 3 3 4 4 5 5 5 6 6 6 5 5 5 5 4 4 4 4 4 4
Height
3086 3086 3087 3087 3087 3087 3087 3087 3087 3087 3087 3087 3087 3087 3087 3087 3086 3086 3086 3085 3085 3083 3082 3082 3083 3084 3084 3085 3085 3084 3084 3083 3083 3083 3082 3082 3082 3082 3082 3082 3082 3081 3081 3080 3080 3080 3081 3081 3081 3081 3081 3080 3078 3076 3076 3076 3076 3076 3077 3077 3077 3077 3077 3077 3077 3077 3077 3077 3077
3084 3084 3085 3085 3085 3085 3085 3085 3085 3085 3085 3085 3085 3085 3085 3085 3085 3084 3084 3083 3083 3082 3081 3080 3081 3081 3082 3082 3082 3082 3082 3082 3081 3081 3081 3081 3080 3080 3080 3080 3080 3079 3078 3077 3077 3078 3078 3078 3078 3078 3078 3077 3075 3074 3073 3074 3074 3075 3075 3075 3074 3074 3074 3074 3074 3074 3074 3074 3074
3082 3082 3082 3083 3083 3083 3083 3083 3083 3083 3083 3083 3083 3083 3083 3083 3082 3082 3082 3082 3081 3081 3080 3079 3079 3079 3079 3079 3079 3080 3080 3080 3080 3080 3079 3079 3078 3078 3078 3077 3077 3077 3076 3075 3075 3075 3075 3075 3075 3075 3075 3074 3073 3072 3072 3072 3073 3073 3072 3072 3071 3071 3071 3072 3072 3071 3071 3071 3071
3080 3080 3080 3080 3081 3081 3081 3081 3081 3081 3081 3081 3081 3081 3081 3080 3080 3080 3080 3080 3080 3079 3079 3078 3077 3077 3076 3076 3076 3077 3078 3078 3078 3077 3077 3077 3076 3076 3076 3076 3075 3075 3074 3073 3073 3072 3072 3073 3072 3072 3072 3071 3071 3070 3070 3070 3071 3070 3069 3068 3068 3069 3069 3069 3069 3069 3069 3069 3069
3077 3077 3078 3078 3078 3078 3078 3078 3079 3078 3078 3079 3079 3079 3078 3078 3078 3078 3078 3078 3078 3077 3076 3076 3076 3075 3074 3073 3074 3075 3076 3076 3076 3075 3075 3074 3074 3074 3074 3073 3073 3072 3072 3071 3071 3070 3070 3070 3070 3070 3070 3069 3069 3068 3068 3068 3068 3067 3066 3065 3066 3067 3066 3066 3066 3067 3067 3066 3066
3075 3075 3076 3076 3076 3076 3076 3076 3076 3076 3076 3076 3076 3076 3076 3076 3076 3076 3076 3076 3075 3075 3074 3073 3073 3072 3072 3071 3072 3073 3073 3074 3073 3073 3073 3072 3071 3071 3071 3071 3071 3070 3070 3069 3069 3068 3068 3068 3067 3067 3067 3067 3066 3066 3066 3066 3066 3065 3064 3064 3064 3065 3064 3064 3063 3064 3064 3064 3064
3073 3073 3073 3073 3073 3073 3073 3074 3074 3074 3074 3074 3074 3074 3074 3073 3073 3073 3073 3073 3072 3072 3071 3071 3071 3070 3070 3070 3070 3071 3071 3071 3071 3071 3071 3070 3070 3069 3069 3068 3068 3067 3067 3066 3066 3066 3066 3066 3065 3064 3064 3064 3064 3064 3063 3063 3063 3063 3062 3062 3062 3062 3062 3062 3061 3061 3061 3061 3061
3071 3071 3071 3071 3071 3071 3071 3071 3071 3071 3071 3071 3071 3071 3071 3071 3071 3070 3070 3070 3070 3070 3069 3069 3068 3068 3068 3068 3068 3068 3069 3069 3069 3068 3068 3068 3067 3066 3066 3066 3066 3065 3065 3064 3064 3064 3063 3063 3063 3062 3062 3062 3062 3061 3061 3061 3061 3061 3060 3060 3060 3060 3060 3059 3059 3059 3059 3058 3058
3068 3068 3069 3069 3069 3069 3069 3069 3069 3069 3069 3069 3069 3069 3068 3068 3068 3068 3068 3067 3067 3067 3067 3066 3066 3066 3066 3066 3066 3066 3066 3066 3066 3066 3065 3065 3065 3064 3063 3063 3063 3062 3062 3062 3062 3061 3061 3061 3061 3061 3060 3060 3060 3059 3059 3059 3058 3058 3058 3058 3057 3057 3057 3056 3056 3056 3056 3056 3056
3066 3066 3066 3066 3066 3066 3066 3066 3066 3066 3066 3066 3066 3066 3066 3066 3066 3065 3065 3065 3065 3065 3065 3064 3064 3064 3063 3063 3063 3063 3063 3063 3063 3062 3062 3062 3062 3061 3061 3061 3060 3059 3059 3059 3059 3059 3059 3058 3058 3058 3057 3057 3057 3057 3056 3056 3056 3055 3055 3055 3054 3054 3054 3054 3053 3053 3052 3052 3052
3063 3064 3064 3064 3064 3064 3064 3064 3064 3064 3064 3064 3064 3063 3063 3063 3063 3063 3063 3063 3063 3062 3062 3062 3061 3061 3061 3061 3060 3060 3060 3060 3060 3060 3060 3059 3059 3058 3058 3058 3057 3057 3056 3056 3056 3056 3056 3055 3055 3055 3055 3055 3055 3055 3054 3054 3053 3052 3051 3051 3051 3051 3051 3051 3051 3050 3050 3049 3049
3061 3061 3061 3061 3061 3062 3062 3062 3062 3061 3061 3061 3061 3061 3061 3060 3061 3061 3061 3061 3060 3060 3060 3059 3059 3059 3058 3058 3058 3057 3057 3057 3057 3057 3056 3056 3055 3055 3055 3054 3054 3054 3054 3053 3053 3053 3053 3052 3052 3052 3052 3052 3052 3051 3051 3051 3051 3050 3049 3048 3049 3049 3048 3047 3048 3048 3048 3048 3047
3058 3059 3059 3059 3059 3059 3059 3059 3059 3059 3059 3058 3058 3058 3058 3058 3058 3059 3058 3058 3057 3057 3057 3057 3056 3056 3056 3056 3055 3055 3055 3055 3054 3054 3053 3052 3051 3051 3051 3050 3050 3050 3051 3051 3051 3051 3050 3050 3050 3050 3049 3049 3049 3049 3049 3049 3048 3047 3047 3047 3046 3046 3045 3044 3045 3045 3046 3046 3046
3056 3056 3056 3056 3056 3056 3056 3056 3056 3056 3056 3055 3055 3055 3055 3055 3056 3056 3056 3055 3055 3055 3054 3054 3054 3053 3053 3053 3052 3052 3052 3051 3051 3050 3049 3049 3048 3048 3048 3047 3047 3047 3047 3048 3048 3048 3047 3047 3047 3047 3047 3047 3046 3046 3046 3046 3045 3045 3045 3045 3044 3044 3043 3043 3043 3043 3043 3043 3043
3054 3054 3054 3054 3054 3054 3054 3053 3053 3052 3052 3052 3052 3052 3052 3053 3053 3053 3053 3052 3052 3052 3051 3051 3051 3051 3051 3050 3050 3049 3049 3049 3048 3047 3047 3046 3046 3046 3046 3045 3045 3045 3045 3045 3045 3045 3044 3044 3044 3044 3044 3044 3044 3044 3043 3043 3042 3042 3042 3042 3042 3041 3041 3041 3041 3041 3041 3041 3040
3051 3051 3051 3051 3051 3051 3051 3051 3050 3050 3049 3049 3049 3050 3050 3050 3050 3049 3049 3049 3049 3049 3048 3048 3048 3048 3047 3047 3047 3046 3046 3046 3046 3045 3044 3043 3043 3043 3042 3042 3042 3042 3041 3041 3041 3041 3041 3041 3041 3041 3042 3042 3041 3041 3041 3041 3040 3040 3039 3039 3039 3039 3039 3039 3039 3039 3038 3037 3037
3049 3049 3049 3049 3049 3048 3048 3048 3047 3047 3047 3046 3046 3047 3047 3047 3046 3046 3046 3046 3045 3045 3045 3045 3045 3045 3044 3044 3044 3043 3043 3043 3043 3043 3042 3041 3041 3040 3040 3040 3040 3039 3038 3038 3037 3037 3037 3037 3038 3039 3039 3039 3039 3038 3038 3038 3038 3037 3037 3037 3037 3037 3037 3037 3037 3036 3036 3035 3035
3047 3046 3046 3046 3046 3046 3045 3045 3045 3044 3044 3044 3044 3044 3044 3043 3043 3043 3042 3042 3042 3041 3041 3041 3041 3041 3041 3041 3040 3040 3040 3040 3040 3040 3040 3039 3039 3038 3038 3038 3037 3037 3036 3036 3035 3034 3034 3034 3035 3036 3036 3036 3036 3036 3036 3036 3035 3035 3035 3035 3035 3035 3035 3035 3035 3034 3033 3033 3032
3044 3044 3044 3043 3043 3043 3042 3042 3042 3042 3041 3041 3041 3041 3041 3040 3040 3040 3040 3039 3039 3038 3038 3038 3038 3038 3037 3037 3037 3037 3037 3037 3037 3037 3036 3036 3036 3036 3036 3036 3035 3035 3034 3033 3032 3031 3031 3031 3032 3033 3034 3034 3034 3033 3033 3034 3033 3033 3033 3033 3033 3033 3033 3033 3032 3031 3031 3031 3031
3042 3041 3041 3041 3041 3040 3040 3040 3040 3039 3039 3039 3038 3038 3038 3037 3037 3037 3037 3036 3036 3036 3035 3035 3035 3035 3034 3034 3034 3034 3034 3034 3034 3034 3034 3034 3033 3033 3033 3033 3032 3032 3031 3030 3028 3027 3027 3028 3029 3030 3031 3031 3031 3031 3031 3031 3031 3031 3031 3031 3031 3031 3031 3031 3030 3030 3030 3030 3030
3040 3039 3039 3038 3038 3038 3038 3037 3037 3037 3036 3036 3036 3036 3035 3035 3035 3034 3034 3034 3034 3033 3033 3032 3032 3032 3031 3031 3031 3031 3031 3031 3031 3031 3031 3031 3031 3030 3030 3030 3030 3029 3028 3027 3026 3024 3024 3025 3026 3027 3028 3028 3029 3029 3029 3030 3029 3029 3029 3029 3029 3029 3029 3029 3029 3029 3028 3028 3028
3037 3037 3036 3036 3036 3036 3035 3035 3035 3035 3034 3034 3034 3033 3033 3033 3032 3032 3032 3031 3031 3031 3031 3030 3030 3029 3029 3029 3029 3028 3028 3028 3028 3028 3028 3028 3027 3027 3027 3027 3027 3026 3026 3025 3024 3023 3023 3024 3025 3026 3026 3026 3026 3027 3027 3027 3027 3027 3027 3027 3027 3027 3027 3027 3027 3026 3026 3026 3026
3035 3034 3034 3034 3034 3033 3033 3033 3032 3032 3032 3031 3031 3031 3031 3031 3030 3030 3030 3029 3029 3029 3028 3028 3027 3027 3027 3026 3026 3026 3026 3026 3026 3025 3025 3025 3025 3025 3025 3025 3025 3025 3024 3024 3023 3022 3022 3023 3023 3024 3025 3025 3025 3025 3025 3025 3025 3025 3025 3025 3025 3025 3025 3025 3024 3024 3023 3023 3023
3032 3032 3031 3031 3031 3031 3031 3030 3030 3030 3029 3029 3029 3029 3029 3028 3028 3028 3028 3027 3027 3027 3026 3026 3025 3025 3024 3024 3024 3024 3023 3023 3023 3023 3023 3023 3023 3023 3023 3023 3023 3023 3022 3022 3021 3021 3021 3022 3022 3023 3023 3023 3023 3023 3023 3023 3023 3023 3023 3023 3023 3023 3023 3022 3022 3021 3021 3021 3020
3029 3029 3029 3029 3029 3028 3028 3028 3027 3027 3027 3027 3027 3027 3027 3027 3026 3026 3026 3026 3025 3025 3024 3024 3023 3023 3022 3022 3022 3022 3021 3021 3021 3021 3021 3021 3021 3021 3021 3021 3021 3021 3021 3020 3020 3020 3020 3020 3021 3021 3022 3022 3022 3021 3021 3021 3021 3021 3021 3021 3021 3021 3021 3020 3020 3019 3019 3018 3018
3027 3026 3026 3026 3026 3026 3026 3025 3025 3025 3025 3025 3025 3026 3025 3025 3025 3025 3024 3024 3023 3023 3022 3022 3021 3021 3021 3021 3020 3020 3020 3020 3020 3020 3020 3020 3020 3020 3020 3020 3020 3019 3019 3019 3018 3019 3019 3019 3019 3020 3020 3020 3020 3020 3020 3020 3020 3020 3020 3019 3019 3019 3018 3018 3017 3017 3016 3016 3016
3024 3024 3024 3024 3023 3023 3023 3023 3023 3023 3023 3024 3024 3024 3024 3024 3023 3023 3023 3022 3022 3021 3021 3020 3020 3020 3019 3019 3019 3018 3018 3018 3018 3018 3018 3018 3018 3018 3018 3018 3018 3018 3017 3017 3017 3017 3017 3017 3018 3018 3018 3018 3018 3018 3018 3018 3018 3018 3017 3017 3017 3016 3016 3015 3015 3014 3014 3014 3013
3021 3021 3021 3021 3021 3021 3021 3021 3021 3022 3022 3022 3022 3022 3022 3022 3022 3021 3021 3021 3020 3020 3019 3019 3018 3018 3018 3017 3017 3017 3017 3017 3016 3016 3016 3016 3016 3016 3016 3016 3016 3016 3016 3016 3016 3016 3016 3016 3016 3016 3016 3016 3016 3016 3016 3016 3016 3016 3015 3015 3015 3014 3014 3013 3013 3012 3012 3012 3011
3019 3019 3019 3019 3019 3019 3019 3020 3020 3020 3021 3021 3021 3021 3021 3021 3021 3020 3020 3019 3019 3018 3018 3017 3017 3017 3016 3016 3016 3016 3015 3015 3015 3015 3015 3015 3015 3015 3015 3015 3015 3015 3015 3015 3015 3015 3015 3015 3015 3015 3015 3014 3014 3014 3014 3014 3014 3014 3014 3013 3013 3012 3012 3011 3011 3011 3011 3010 3010
3017 3017 3017 3017 3017 3017 3018 3018 3019 3019 3020 3020 3020 3020 3020 3020 3019 3019 3018 3018 3017 3017 3017 3016 3016 3016 3015 3015 3015 3014 3014 3014 3014 3014 3014 3014 3014 3014 3014 3014 3014 3014 3014 3014 3014 3013 3013 3013 3013 3013 3013 3013 3013 3013 3013 3013 3013 3012 3012 3012 3011 3011 3010 3010 3010 3009 3009 3008 3008
3016 3016 3015 3016 3016 3016 3017 3017 3018 3018 3019 3019 3019 3019 3018 3018 3018 3017 3017 3017 3016 3016 3016 3016 3015 3015 3015 3014 3014 3014 3013 3013 3013 3013 3013 3013 3013 3013 3013 3013 3013 3012 3012 3012 3012 3012 3012 3012 3012 3012 3012 3012 3011 3011 3011 3011 3011 3011 3011 3010 3010 3009 3009 3008 3008 3007 3007 3007 3006
3015 3015 3015 3015 3015 3016 3016 3016 3017 3017 3017 3017 3017 3017 3017 3017 3017 3016 3016 3016 3016 3016 3015 3015 3015 3014 3014 3014 3013 3013 3013 3013 3012 3012 3012 3012 3012 3012 3012 3011 3011 3011 3011 3011 3011 3011 3011 3011 3011 3011 3011 3011 3010 3010 3010 3010 3010 3009 3009 3008 3008 3007 3007 3006 3006 3006 3006 3006 3005
3014 3014 3014 3015 3015 3015 3016 3016 3016 3016 3016 3016 3016 3016 3016 3016 3016 3016 3015 3015 3015 3015 3014 3014 3014 3014 3013 3013 3013 3012 3012 3012 3011 3011 3011 3011 3011 3011 3011 3011 3011 3010 3010 3010 3010 3010 3010 3010 3009 3009 3009 3009 3009 3008 3008 3008 3008 3007 3007 3006 3006 3006 3005 3005 3005 3005 3005 3005 3005
3014 3014 3014 3014 3015 3015 3015 3015 3016 3016 3016 3016 3016 3016 3015 3015 3015 3015 3015 3014 3014 3014 3014 3013 3013 3013 3012 3012 3012 3011 3011 3011 3011 3011 3011 3011 3010 3010 3010 3010 3010 3009 3009 3009 3009 3009 3009 3008 3008 3008 3008 3007 3007 3007 3006 3006 3006 3006 3005 3005 3005 3005 3004 3004 3004 3004 3004 3004 3004
3014 3014 3014 3014 3014 3014 3015 3015 3015 3015 3015 3015 3015 3015 3015 3015 3015 3014 3014 3014 3013 3013 3013 3012 3012 3012 3012 3011 3011 3011 3011 3010 3010 3010 3010 3010 3010 3010 3009 3009 3009 3009 3008 3008 3008 3008 3007 3007 3007 3007 3006 3006 3006 3006 3006 3005 3005 3005 3005 3005 3004 3004 3004 3004 3004 3003 3003 3003 3003
3014 3014 3014 3014 3014 3014 3014 3014 3015 3015 3015 3015 3015 3015 3015 3015 3014 3014 3014 3013 3013 3012 3012 3011 3011 3011 3011 3011 3010 3010 3010 3010 3010 3009 3009 3009 3009 3009 3009 3008 3008 3008 3008 3008 3007 3007 3007 3006 3006 3006 3006 3006 3006 3006 3005 3005 3005 3005 3005 3004 3004 3004 3004 3003 3003 3003 3002 3002 3002
3015 3014 3014 3014 3014 3014 3014 3014 3014 3014 3014 3014 3014 3014 3014 3014 3014 3013 3013 3013 3012 3012 3011 3011 3011 3010 3010 3010 3010 3009 3009 3009 3009 3009 3009 3009 3008 3008 3008 3008 3008 3008 3008 3008 3007 3007 3007 3007 3006 3006 3006 3006 3006 3006 3005 3005 3005 3004 3004 3004 3003 3003 3003 3003 3002 3002 3001 3001 3001
3015 3014 3014 3014 3013 3013 3013 3013 3014 3014 3014 3014 3014 3014 3014 3014 3013 3013 3012 3012 3011 3011 3011 3011 3010 3010 3010 3009 3009 3009 3009 3009 3009 3009 3008 3008 3008 3008 3008 3008 3008 3008 3008 3008 3008 3008 3007 3007 3007 3007 3006 3006 3006 3006 3005 3005 3004 3004 3004 3003 3003 3003 3002 3002 3002 3001 3001 3000 3000
3016 3015 3015 3014 3014 3013 3013 3013 3014 3014 3014 3014 3014 3014 3013 3013 3013 3012 3012 3012 3011 3011 3011 3010 3010 3010 3010 3009 3009 3009 3009 3009 3009 3009 3009 3008 3008 3008 3008 3008 3008 3008 3008 3008 3008 3008 3008 3007 3007 3007 3006 3006 3006 3005 3005 3004 3004 3004 3003 3003 3003 3002 3002 3001 3001 3001 3000 2999 2998
3017 3016 3016 3015 3015 3014 3014 3014 3014 3014 3014 3014 3014 3014 3013 3013 3013 3012 3012 3012 3012 3011 3011 3011 3011 3010 3010 3010 3010 3010 3009 3009 3009 3009 3009 3009 3009 3009 3009 3009 3009 3009 3009 3009 3008 3008 3008 3007 3007 3007 3006 3006 3006 3005 3005 3004 3004 3003 3003 3003 3002 3002 3001 3001 3000 2999 2998 2998 2997
3018 3017 3017 3016 3016 3015 3015 3015 3015 3015 3014 3014 3014 3014 3014 3014 3014 3013 3013 3013 3013 3013 3012 3012 3012 3011 3011 3011 3011 3011 3011 3011 3011 3011 3011 3011 3010 3010 3010 3010 3010 3009 3009 3009 3009 3008 3008 3007 3007 3007 3006 3006 3006 3005 3005 3004 3003 3003 3002 3002 3001 3001 3000 2999 2998 2998 2997 2996 2996